Regional Weather Roundup
Issued by NWS

Home | Current Version | Previous Version | Graphics & Text | Print | Product List | Glossary On
Versions: 1 2 3 4 5 6 7 8 9 10 11 12 13 14 15 16 17 18 19 20 21 22 23 24 25 26 27 28 29 30 31 32 33 34 35 36 37 38 39 40 41 42 43 44 45 46 47 48 49 50
149
ASUS43 KLOT 170803
RWRIL

ILLINOIS REGIONAL WEATHER ROUNDUP
NATIONAL WEATHER SERVICE CHICAGO/ROMEOVILLE IL
200 AM CST TUE JAN 17 2017

NOTE: "FAIR" INDICATES FEW OR NO CLOUDS BELOW 12,000 FEET WITH NO
SIGNIFICANT WEATHER AND/OR OBSTRUCTIONS TO VISIBILITY.

* THESE STATIONS ARE NOT UNDER NWS QUALITY CONTROL. THEY ALSO MAY NOT
  REPORT WEATHER SUCH AS PRECIPITATION OR FOG.

ILZ001-002-007-009-015-016-024-170900-
NORTHWEST ILLINOIS

CITY           SKY/WX    TMP DP  RH WIND       PRES   REMARKS
MOLINE         FOG       36  34  92 SW3       29.81R VSB 3/4
STERLING*      MIX PCPN  36  36 100 NW3       29.80R FOG
SAVANNA*       CLOUDY    36  35  98 CALM      29.81S FOG
$$

ILZ003-004-008-010-011-017-018-170900-
NORTH CENTRAL ILLINOIS

CITY           SKY/WX    TMP DP  RH WIND       PRES   REMARKS
ROCKFORD       RAIN      37  35  92 N8        29.78F FOG     WCI  31
FREEPORT*      FOG       33  33  99 N3        29.81S VSB 1
ROCHELLE*      RAIN      35  35 100 CALM      29.79R
DE KALB*       CLOUDY    37  37 100 NE3       29.76F
$$

ILZ005-006-012>014-019>023-170900-
NORTHEAST ILLINOIS

CITY           SKY/WX    TMP DP  RH WIND       PRES   REMARKS
CHICAGO-OHARE  TSTM      38  38 100 NE3       29.76S FOG
CHICAGO-MIDWAY TSTM      38  38 100 NW13      29.76R VSB 1   WCI  30
AURORA         NOT AVBL
LANSING*       TSTM      48  48 100 S12G18    29.75R
JOLIET*        CLOUDY    42  42 100 CALM      29.76S
WAUKEGAN       LGT RAIN  38  37  97 NE6       29.78F VSB 1/2 WCI  33
DUPAGE AIRPORT LGT RAIN  38  36  92 N7        29.74F FOG     WCI  33
WHEELING       TSTM      38  37  97 CALM      29.77F FOG
MORRIS*        CLOUDY    38  38  97 CALM      29.75S VSB 3/4
ROMEOVILLE*    TSTM      40  40 100 NE5       29.76R
NORTHERLY ISL    N/A     36  35  96 W6          N/A  WCI  31
$$

LMZ740>746-170900-
SOUTHERN LAKE MICHIGAN

STATION/POSITION SKY/WX   TEMP    WIND        PRES    VSBY  WAVE
                          AIR SEA DIR/SP/G                  HT/PER
                          (F)     (DEG/KT/KT) (MB)    (MI)  (FT/S)
HARRISON CRIB              42      90/ 13/ 13   N/A
BURNHAM HARBOR             37     350/  4/  5   N/A
CALUMET HARBOR             45     120/  5/  8 1006.4F
BURNS HARBOR               49     150/  9/ 16 1008.1F
$$

ILZ025>027-034>036-040-047-049-050-058-095>099-170900-
WEST-CENTRAL ILLINOIS

CITY           SKY/WX    TMP DP  RH WIND       PRES   REMARKS
QUINCY         CLOUDY    43  41  93 SW13G23   29.87R
GALESBURG*     FOG       38  38 100 W5        29.82R VSB 1/2 WCI  34
MACOMB*        CLOUDY    42  42 100 W17       29.85R FOG
JACKSONVILLE*  CLOUDY    46  43  88 W12       29.87R
PITTSFIELD*    CLOUDY    45  42  89 W16       29.90R
$$

ILZ028>032-037-038-041>044-048-051>054-059>061-170900-
CENTRAL ILLINOIS

CITY           SKY/WX    TMP DP  RH WIND       PRES   REMARKS
BLOOMINGTON    LGT RAIN  48  48 100 W17G23    29.80R
DECATUR        CLOUDY    54  52  93 W17G26    29.82R
PEORIA         CLOUDY    45  45 100 W7        29.81R FOG
LACON*         CLOUDY    38  38 100 CALM      29.78R
LINCOLN*       CLOUDY    50  50 100 W9G20     29.83R
SPRINGFIELD    CLOUDY    50  45  83 W18       29.86R
TAYLORVILLE    RAIN      49  46  89 W21G26    29.87R
$$

ILZ033-039-045-046-055>057-062-063-170900-
EAST-CENTRAL ILLINOIS

CITY           SKY/WX    TMP DP  RH WIND       PRES   REMARKS
CHAMPAIGN      LGT RAIN  55  53  93 S21       29.78S
MATTOON        LGT RAIN  57  55  93 S14G24    29.80F
PARIS*         CLOUDY    57  56  96 S18G25    29.82F
$$

ILZ079-100>102-170900-
SOUTHWEST ILLINOIS

CITY           SKY/WX    TMP DP  RH WIND       PRES   REMARKS
ALTON          CLOUDY    48  45  87 W14       29.91R
BELLEVILLE     CLOUDY    50  50  99 W14       29.90R
CAHOKIA*       CLOUDY    51  43  74 W10G17    29.91R
SPARTA*        CLOUDY    53  50  88 W12G21    29.91R
$$

ILZ064>066-069>071-074>076-080>082-084>086-088>090-092>094-170900-
SOUTH-CENTRAL ILLINOIS

CITY           SKY/WX    TMP DP  RH WIND       PRES   REMARKS
CARBONDALE     NOT AVBL
CAIRO*         CLOUDY    61  60  96 SW13G21   29.93R
EFFINGHAM*     CLOUDY    59  59 100 S12       29.84S
MARION         CLOUDY    61  61 100 SW10      29.91R
MT. VERNON     MOCLDY    57  56  96 SW10      29.88R
CENTRALIA*     MOCLDY    59  58  96 S14       29.85S
SALEM*         PTCLDY    60  57  89 SW15      29.85S
$$

ILZ067-068-072-073-078-083-087-091-170900-
SOUTHEAST ILLINOIS

CITY           SKY/WX    TMP DP  RH WIND       PRES   REMARKS
LAWRENCEVILLE  CLOUDY    57  56  96 SW7       29.89R
FLORA*         MOCLDY    58  57  95 S9        29.87R
HARRISBURG*    CLOUDY    60  59  95 SW12      29.89S
ROBINSON*      PTCLDY    57  55  94 S15       29.87F
CARMI*         CLOUDY    57  56  98 S10       29.88S
$$

ABBREVIATIONS USED IN REMARKS
   TC - TEMPERATURE IN CELSIUS
  WCI - WIND CHILL INDEX
   HX - HEAT INDEX
  VSB - VISIBILITY
$$





USA.gov is the U.S. government's official web portal to all federal, state and local government web resources and services.